Weather History for New York JFK, NY

Change the Weather History Date:

Tuesday, February 12, 2013

  Actual Average Record
Temperature  
Mean Temperature 42 °F 34 °F  
Max Temperature 47 °F 41 °F 58 °F (1966)
Min Temperature 37 °F 28 °F 4 °F (1979)
Degree Days  
Heating Degree Days 23 31  
Month to date heating degree days 410 377  
Since 1 July heating degree days 2880 3047  
Cooling Degree Days 0 0  
Month to date cooling degree days 0 0  
Year to date cooling degree days 0 0  
Moisture  
Dew Point 25 °F    
Average Humidity 65    
Maximum Humidity 89    
Minimum Humidity 41    
Precipitation  
Precipitation 0.00 in 0.09 in 1.52 in (1988)
Month to date precipitation 1.48 1.06  
Year to date precipitation 3.87 4.22  
Snow  
Snow 0.00 in 0.30 in 15.00 in (2006)
Month to date snowfall 7.4 3.6  
Since 1 July snowfall 13.2 14.8  
Snow Depth 2.00 in    
Sea Level Pressure  
Sea Level Pressure 29.87 in    
Wind  
Wind Speed 14 mph (West)    
Max Wind Speed 26 mph    
Max Gust Speed 33 mph    
Visibility 10 miles    
Events      
T = Trace of Precipitation, MM = Missing Value Source: NWS Daily Summary

Daily Weather History Graph

Daily Weather History Graph

Search for Another Location

Airport:

Trip Planner

Search our weather history database for the weather conditions in past years. The results will help you decide how hot, cold, wet, or windy it might be!

Date:

Astronomy

Feb. 12, 2013 Rise Set
Actual Time 6:52 AM EST 5:26 PM EST
Civil Twilight 6:24 AM EST 5:54 PM EST
Nautical Twilight 5:52 AM EST 6:27 PM EST
Astronomical Twilight 5:20 AM EST 6:58 PM EST
Moon 7:47 AM EST (2/12) 8:25 PM EST (2/12)
Length of Visible Light 11h 30m
Length of Day
10h 34m
Waxing Crescent, 7% of the Moon is Illuminated
Feb 12
Waxing Crescent
Feb 17
First Quarter
Feb 25
Full
Mar 4
Last Quarter
Mar 11
New

Hourly Weather History & Observations

Time (EST) Temp. Windchill Dew Point Humidity Pressure Visibility Wind Dir Wind Speed Gust Speed Precip Events Conditions
12:51 AM 42.1 °F 39.2 °F 37.0 °F 82% 29.74 in 10.0 mi West 4.6 mph - N/A   Partly Cloudy
1:51 AM 39.0 °F 32.3 °F 36.0 °F 89% 29.75 in 7.0 mi WSW 10.4 mph - N/A   Mostly Cloudy
2:51 AM 41.0 °F 32.5 °F 28.9 °F 62% 29.76 in 10.0 mi West 17.3 mph 24.2 mph N/A   Partly Cloudy
3:51 AM 41.0 °F 32.8 °F 26.1 °F 55% 29.78 in 10.0 mi WNW 16.1 mph 26.5 mph N/A   Partly Cloudy
4:51 AM 39.9 °F 32.5 °F 25.0 °F 55% 29.80 in 10.0 mi West 12.7 mph 21.9 mph N/A   Partly Cloudy
5:51 AM 39.0 °F 31.4 °F 27.0 °F 62% 29.81 in 10.0 mi West 12.7 mph - N/A   Mostly Cloudy
6:51 AM 39.9 °F 31.4 °F 25.0 °F 55% 29.83 in 10.0 mi West 16.1 mph 23.0 mph N/A   Mostly Cloudy
7:51 AM 39.9 °F 30.5 °F 26.1 °F 58% 29.86 in 10.0 mi West 19.6 mph - N/A   Mostly Cloudy
8:51 AM 42.1 °F 33.1 °F 24.1 °F 49% 29.88 in 10.0 mi West 20.7 mph 27.6 mph N/A   Scattered Clouds
9:51 AM 42.1 °F 33.9 °F 25.0 °F 51% 29.88 in 10.0 mi West 17.3 mph 26.5 mph N/A   Mostly Cloudy
10:51 AM 43.0 °F 35.1 °F 24.1 °F 47% 29.90 in 10.0 mi West 17.3 mph 23.0 mph N/A   Mostly Cloudy
11:51 AM 44.1 °F 37.1 °F 25.0 °F 47% 29.90 in 10.0 mi West 15.0 mph 26.5 mph N/A   Mostly Cloudy
12:51 PM 44.1 °F 36.5 °F 25.0 °F 47% 29.90 in 10.0 mi West 17.3 mph - N/A   Mostly Cloudy
1:51 PM 45.0 °F 38.2 °F 24.1 °F 44% 29.89 in 10.0 mi West 15.0 mph 26.5 mph N/A   Scattered Clouds
2:51 PM 46.9 °F - 24.1 °F 41% 29.88 in 10.0 mi NW 16.1 mph - N/A   Scattered Clouds
3:51 PM 45.0 °F 37.9 °F 23.0 °F 42% 29.88 in 10.0 mi WNW 16.1 mph - N/A   Scattered Clouds
4:51 PM 42.1 °F 34.2 °F 23.0 °F 47% 29.86 in 10.0 mi West 16.1 mph 19.6 mph N/A   Scattered Clouds
5:51 PM 41.0 °F 33.1 °F 24.1 °F 51% 29.94 in 10.0 mi West 15.0 mph 25.3 mph N/A   Mostly Cloudy
6:51 PM 41.0 °F 33.1 °F 24.1 °F 51% 29.97 in 10.0 mi West 15.0 mph - N/A   Mostly Cloudy
7:51 PM 39.9 °F 32.9 °F 23.0 °F 51% 29.98 in 10.0 mi West 11.5 mph - N/A   Mostly Cloudy
8:51 PM 39.0 °F 31.4 °F 21.9 °F 50% 29.95 in 10.0 mi WNW 12.7 mph - N/A   Mostly Cloudy
9:51 PM 37.9 °F 30.0 °F 21.9 °F 53% 29.93 in 10.0 mi WNW 12.7 mph - N/A   Scattered Clouds
10:51 PM 37.9 °F 31.5 °F 21.9 °F 53% 29.93 in 10.0 mi WNW 9.2 mph - N/A   Partly Cloudy
11:51 PM 37.0 °F 30.4 °F 21.9 °F 54% 29.95 in 10.0 mi West 9.2 mph - N/A   Partly Cloudy